Other Public Products
Issued by NWS Grand Forks, ND

Home | Current Version | Previous Version | Graphics & Text | Print | Product List | Glossary On
Versions: 1 2 3 4 5 6 7 8 9 10 11 12 13 14 15 16 17 18 19 20 21 22 23 24 25 26 27 28 29 30 31 32 33 34 35 36 37 38 39 40 41 42 43 44 45 46 47 48 49 50
000
FPUS83 KFGF 221731
OPUFGF
PRAIRIE TO PINES WEATHER ROUNDUP
NATIONAL WEATHER SERVICE EASTERN NORTH DAKOTA/GRAND FORKS ND
1200 PM CDT SUN APR 22 2018

 **SATELLITE DATA USED TO AUGMENT SKY COVER AT AUTOMATED STATIONS**
 *****  WEATHER ACROSS EASTERN NORTH DAKOTA  *****

CITY           SKY/WX    TMP DP  RH WIND       PRES   REMARKS
GRAND FORKS    FAIR      54  41  61 SW21      30.20F
GRND FORKS AFB FAIR      57  40  53 SW16      30.19F
GRND FORKS NWS   N/A     55  40  56 SW13      30.18F
BUXTON           N/A     56  45  65 S14         N/A
DEVILS LAKE    FAIR      54  37  52 SW17      30.15F
FARGO          FAIR      57  39  51 S14       30.24S
WAHPETON ARPT  FAIR      55  37  50 S16       30.26F
$$

 *****  WEATHER ACROSS CENTRAL AND WESTERN NORTH DAKOTA  *****

CITY           SKY/WX    TMP DP  RH WIND       PRES   REMARKS
JAMESTOWN      FAIR      58  36  43 SW21G26   30.19F
BISMARCK       FAIR      59  38  45 SW13G23   30.15F
MINOT          FAIR      60  31  33 NW9       30.12R
MINOT AFB      FAIR      57  33  39 N9        30.10S
GARRISON         N/A     53  38  56 MISG      30.13S
WILLISTON      PTSUNNY   60  31  33 N8        30.14S
DICKINSON      FAIR      60  23  24 CALM      30.12S
HETTINGER      FAIR      58  38  47 N5        30.14F
$$

 *****  OTHER OBSERVATIONS NORTHEAST NORTH DAKOTA  *****

CITY           SKY/WX    TMP DP  RH WIND       PRES   REMARKS
WALHALLA       FAIR      57  41  54 SW15G26   30.12S
LANGDON        NOT AVBL
CAVALIER         N/A     59  41  51 SW21G30   30.12F
GRAFTON        NOT AVBL
CANDO          FAIR      59  39  47 SW12      30.15S
FORT TOTTEN      N/A     56  37  49 SW12      29.95S
ROLLA          FAIR      52  41  66 SW10      30.12S
RUGBY          NOT AVBL
 ***** THE ABOVE OBSERVATIONS ARE NON NWS ARE NOT QUALITY
        CONTROLLED AND MAY MIS-REPORT RAIN FOR SNOW...
$$

 *****  OTHER OBSERVATIONS SOUTHEAST NORTH DAKOTA *****

CITY           SKY/WX    TMP DP  RH WIND       PRES   REMARKS
COOPERSTOWN    FAIR      55  43  62 S17G24    30.19F
VALLEY CITY    NOT AVBL
OAKES            N/A     57  37  47 S18G24    30.23S
GWINNER          N/A     57  39  51 S17       30.24R
SHEYENNE NWR     N/A     58  37  46 SW13      29.95S
BUFFALO          N/A     56  32  40 E15         N/A
WYNDMERE       NOT AVBL
 ***** THE ABOVE OBSERVATIONS ARE NON NWS ARE NOT QUALITY
       CONTROLLED AND MAY MIS-REPORT RAIN FOR SNOW...
$$

  *****  WEATHER ACROSS NORTHERN MINNESOTA  *****

CITY           SKY/WX    TMP DP  RH WIND       PRES   REMARKS
FLAG ISLAND    FAIR      41  30  65 S15       30.18S
WARROAD        FAIR      57  37  47 SW21G26   30.20R
ROSEAU         FAIR      57  41  54 SW20G26   30.19S
HALLOCK        FAIR      61  37  41 SW24G31   30.15F
THF RVR FALLS  FAIR      54  39  57 S21       30.22F
HALSTAD        NOT AVBL
FOSSTON        FAIR      55  36  47 SW17G25   30.24F
BAUDETTE       FAIR      57  29  34 SW18G29   30.20F
WASKISH        CLOUDY    57  32  38 SW12G17   30.24F
CROOKSTON      FAIR      57  41  54 SW21      30.23S
$$
  *****  WEATHER ACROSS CENTRAL AND WEST MINNESOTA  *****

CITY           SKY/WX    TMP DP  RH WIND       PRES   REMARKS
BEMIDJI        FAIR      58  30  33 SW13G18   30.25F
PARK RAPIDS    FAIR      57  33  40 SW13G21   30.28F
WADENA         FAIR      57  34  41 S13       30.28F
DETROIT LAKES  FAIR      59  30  33 S13G18    30.26F
MOORHEAD       FAIR      55  39  54 S10G16    30.26F
FERGUS FALLS   FAIR      57  36  44 S15       30.25F
ELBOW LAKE     FAIR      58  37  45 S14       30.29F
MORRIS MN      FAIR      55  41  58 S10       30.29S
STAPLES        FAIR      57  30  35 S13       30.30F
WHEATON        FAIR      55  39  54 S12       30.30S
$$
  *****  WEATHER ELSEWHERE ACROSS MINNESOTA  *****

CITY           SKY/WX    TMP DP  RH WIND       PRES   REMARKS
DULUTH         FAIR      56  26  31 SW10      30.32F
INTRNTL FALLS  FAIR      57  33  40 SW15G24   30.24F
ELY            FAIR      55  19  24 SW12      30.30F
CLOQUET        FAIR      57  21  24 S9        30.32F
BRAINERD       FAIR      58  30  34 SW15      30.32F
HIBBING        FAIR      55  24  30 SW9       30.30F
ALEXANDRIA     FAIR      59  33  37 S10G18    30.31F
SAINT CLOUD    FAIR      57  34  41 VRB7      30.34F
MINNEAPOLIS    FAIR      57  31  37 SE6       30.36F
$$

  *****  WEATHER ACROSS SOUTH DAKOTA  *****

CITY           SKY/WX    TMP DP  RH WIND       PRES   REMARKS
SIOUX FALLS    FAIR      57  33  40 E9        30.29S
BROOKINGS      FAIR      54  36  50 SE7       30.29F
WATERTOWN      FAIR      55  37  50 S14       30.27S
HURON          FAIR      55  39  54 VRB5      30.27S
SISSETON         N/A     59  36  42 S13       30.26F
ABERDEEN       FAIR      60  37  42 S14G22    30.24F
MITCHELL       FAIR      54  38  54 SE6       30.28F
PIERRE         FAIR      56  37  49 S14       30.21S
MOBRIDGE       FAIR      57  38  48 S15       30.17F
RAPID CITY     FAIR      57  40  52 E7        30.16S
$$

  *****  SOME WEATHER IN NEARBY STATES *****

CITY           SKY/WX    TMP DP  RH WIND       PRES   REMARKS
GLASGOW MT     FAIR      56  28  34 W8        30.13F
GREAT FALLS MT FAIR      52  19  27 NW8G20    30.15F
CHEYENNE WY    FAIR      54  32  43 N13G21    30.19R
SCOTTSBLUFF NE FAIR      49  42  77 CALM      30.20F
OMAHA NE       PTSUNNY   63  30  28 VRB6G16   30.22S
DES MOINES IA  PTSUNNY   61  29  29 NE10      30.23F
DAVENPORT IA   FAIR      58  19  22 E21       30.29F
CHICAGO IL     PTSUNNY   58  24  27 E15       30.33F
EAU CLAIRE WI  FAIR      59  31  34 S8        30.36F
LA CROSSE WI   FAIR      61  28  28 E12       30.35F
$$

  *****  SOME NATIONAL WEATHER *****

CITY           SKY/WX    TMP DP  RH WIND       PRES   REMARKS
LA GUARDIA NY  FAIR      61  19  19 VRB6      30.37F
RALEIGH NC     PTSUNNY   68  46  45 SW9       30.35F
ATLANTA GA     LGT RAIN  59  58  96 SE10G18   30.19F FOG
NEW ORLEANS LA PTSUNNY   75  68  78 SW20G25   29.88S
OKLAHOMA CITY  PTSUNNY   54  43  66 N21       30.08F
ALBUQUERQUE NM FAIR      59  33  37 SW3       30.19F
SALT LAKE CITY FAIR      66  32  28 CALM      30.10F
LOS ANGELES CA FAIR      69  54  58 W7        29.95S
BOISE ID       FAIR      52  30  43 N7        30.14F
SEATTLE WA     CLOUDY    47  38  71 NE10      30.41S
$$

*** WEATHER ACROSS MANITOBA...SASKATCHEWAN AND ONTARIO ***
                ***ONTARIO***

CITY           SKY/WX    TMP DP  RH WIND       PRES   REMARKS
GERALDTON      PTSUNNY   55  19  24 S13G23    30.29F
THUNDER BAY    PTSUNNY   50  32  50 E9        30.34F
SIOUX LOOKOUT  PTSUNNY   54  27  35 SW16G23   30.19F
TORONTO        SUNNY     59  23  25 VRB7      30.42F
BIG TROUT LK   SUNNY     52  32  46 S10       30.02F
PICKLE LAKE    MOSUNNY   57  25  28 S21G29    30.14F
DRYDEN         SUNNY     55  32  41 S17G25    30.18F
KENORA         PTSUNNY   52  28  40 SW22G31   30.17R
$$
                *** MANITOBA***

CITY           SKY/WX    TMP DP  RH WIND       PRES   REMARKS
BRANDON        PTSUNNY   50  37  62 SW16G22   30.06R
DAUPHIN        SUNNY     59  37  44 W28G36    29.93S
ISLAND LAKE    PTSUNNY   50  36  57 S14G25    29.80S
PILOT MOUND      N/A     54  39  58 SW13G18     N/A
THE PAS        CLOUDY    45  36  70 SW25G39   29.58S
THOMPSON       LGT RAIN  43  39  87 S7        29.55F
WINNIPEG       CLOUDY    57  39  51 SW20G28   30.07S
LYNN LAKE      LGT RAIN  37  37 100 E8        29.45F VSB 3/8
CHURCHILL      CLOUDY    25  21  86 E31G39    29.93F WCI   8
GILLAM         LGT RAIN  41  39  93 SE6       29.71F
$$
                ***SASKATCHEWAN***

CITY           SKY/WX    TMP DP  RH WIND       PRES   REMARKS
ESTEVAN        MOSUNNY   59  30  33 W13G20    30.09S
KINDERSLEY     MOSUNNY   46  30  53 W25G36    30.04R
LLOYDMINSTER   CLOUDY    41  34  75 W23G33    29.93R
PRINCE ALBERT  MOSUNNY   46  34  61 W23G40    29.81R
REGINA         MOSUNNY   54  34  47 W20G28    30.06R
YORKTON        SUNNY     50  36  57 SW26      29.93R



USA.gov is the U.S. government's official web portal to all federal, state and local government web resources and services.